Overview Statistics Trail Chart Weather Telemetry Raw packets
 

This is the latest recevied weather packets stored in our database for station/object N0KWA. If no packets are shown the sender has not sent any weather packets the latest 10 day(s).

<< 25 26 27 28 29 30 31 >>
Time Temp. Humidity Pressure Rain* Wind** Luminosity Snow
1788272567 27.78° C 98% 1020 hPa 0 mm - 12 W/m² -
1788272262 27.22° C 99% 1020 hPa 0 mm - 11 W/m² -
1788271957 27.22° C 99% 1019.9 hPa 0 mm - 18 W/m² -
1788271656 27.22° C 99% 1020.2 hPa 0 mm - 11 W/m² -
1788271354 26.67° C 99% 1020 hPa 0 mm - 12 W/m² -
1788271049 26.67° C 99% 1020 hPa 0 mm - 17 W/m² -
1788270744 26.11° C 99% 1019.9 hPa 0 mm - 16 W/m² -
1788270440 26.11° C 99% 1019.9 hPa 0 mm - 12 W/m² -
1788270135 26.11° C 99% 1019.9 hPa 0 mm - 18 W/m² -
1788269834 25.56° C 99% 1019.9 hPa 0 mm - 13 W/m² -
1788269533 25.56° C 99% 1019.9 hPa 0 mm - 7 W/m² -
1788269232 25.56° C 99% 1019.9 hPa 0 mm - 7 W/m² -
1788268951 25.56° C 99% 1019.7 hPa 0 mm - 7 W/m² -
1788268627 25° C 99% 1019.9 hPa 0 mm - 6 W/m² -
1788268327 25° C 99% 1019.5 hPa 0 mm - 6 W/m² -
1788268022 25° C 99% 1019.6 hPa 0 mm - 6 W/m² -
1788267721 25° C 99% 1019.7 hPa 0 mm - 5 W/m² -
1788267419 24.44° C 99% 1019.7 hPa 0 mm - 5 W/m² -
1788267115 24.44° C 99% 1019.6 hPa 0 mm - 4 W/m² -
1788266809 24.44° C 99% 1019.6 hPa 0 mm - 3 W/m² -
1788266508 24.44° C 99% 1019.4 hPa 0 mm - 2 W/m² -
1788266203 24.44° C 99% 1019.3 hPa 0 mm - 3 W/m² -
1788265903 24.44° C 99% 1019.3 hPa 0 mm - 2 W/m² -
1788265614 24.44° C 99% 1019.2 hPa 0 mm - 2 W/m² -
1788265297 24.44° C 99% 1019.2 hPa 0 mm - 3 W/m² -

* Rain latest hour (hover to see other rain measurements)
** Current wind speed in m/s (hover to see current wind gust speed)